{"data":{"norad_id":46155,"intl_designator":"2020-057AQ","name":"STARLINK-1667","alt_names":[],"object_type":"PAYLOAD","status":"ACTIVE","operator":null,"country":"US","launch_date":"2020-08-18","launch_site_code":"AFETR","launch_vehicle":null,"mission":null,"orbit_class":"UNKNOWN","rcs_meters":null,"size_class":null,"mass_kg":null,"dimensions":null,"purposes":["comms"],"wikipedia_slug":null,"has_3d_model":false,"image_url":null,"decayed_at":null,"tle_current":{"epoch":"2026-05-25T04:08:24.635904Z","epoch_age_seconds":56617,"freshness":"FRESH","line1":"1 46155U 20057AQ  26145.17250736  .00194262  00000+0  85510-3 0  9999","line2":"2 46155  53.0136 204.5638 0008430  14.0017 346.1237 15.83437526320631","mean_motion":15.83437526,"eccentricity":0.000843,"inclination_deg":53.0136,"raan_deg":204.5638,"arg_perigee_deg":14.0017,"mean_anomaly_deg":346.1237,"bstar":0.0008551,"rev_number":32063,"period_min":90.941383941914,"perigee_km":315.08075767822,"apogee_km":326.37504390095,"semimajor_km":6698.8649007896,"source":"CELESTRAK","updated_at":"2026-05-25T13:38:16.467569Z"}}}